Home   Weather   Itabuna   Past weeks

Flag for Brazil Past Weather in Itabuna, Bahia, Brazil — Yesterday and Last 2 Weeks

Now
79 °F

Passing clouds.


Feels Like: 81 °F
Forecast: 74 / 90 °F
Wind: 7 mph from Northeast

Location: Salvador Aeroporto

Current Time: Jan 17, 2017 at 10:51:51 pm

Latest Report: Jan 17, 2017 at 10:00 pm


Visibility: N/A

Pressure: 29.92 "Hg

Humidity: 74%

Dew Point: 70 °F

Location of ItabunaLocation

Past Weather in Itabuna — Graph

°F

Itabuna Temperature Yesterday

Maximum temperature yesterday: 86 °F (at 10:00 am)
Minimum temperature yesterday: 77 °F (at 2:00 am)
Average temperature yesterday: 81 °F

High & Low Weather Summary for the Past Weeks

 TemperatureHumidityPressure
High86 °F (Jan 3, 10:00 am)100% (Jan 5, 5:00 am)30.04 "Hg (Jan 5, 5:00 am)
Low73 °F (Jan 8, 12:42 am)55% (Jan 6, 12:00 pm)29.80 "Hg (Jan 14, 3:00 pm)
Average81 °F71%29.91 "Hg
* Reported Jan 2 9:00 pm — Jan 17 9:00 pm, Itabuna, Weather by CustomWeather, © 2017

Note: Actual official high and low records may vary slightly from our data, if they occured in-between our weather recording intervals... More about our weather records

Advertising

Itabuna Weather History for the Previous 24 Hours

Scroll right to see more
 ConditionsComfort  
Time TempWeatherWind HumidityBarometerVisibility
9:00 pm
Tue, Jan 17
77 °FPassing clouds.7 mph79%29.92 "HgN/A
8:00 pm79 °FPassing clouds.10 mph74%29.89 "HgN/A
7:00 pm79 °FPassing clouds.9 mph74%29.89 "HgN/A
6:00 pm79 °FPassing clouds.9 mph79%29.86 "HgN/A
5:00 pm81 °FPassing clouds.13 mph70%29.86 "HgN/A
4:00 pm82 °FPassing clouds.13 mph66%29.86 "HgN/A
3:00 pm84 °FPassing clouds.14 mph62%29.86 "HgN/A
2:00 pm82 °FPassing clouds.14 mph66%29.89 "HgN/A
1:00 pm82 °FScattered clouds.12 mph62%29.92 "HgN/A
12:00 pm82 °FScattered clouds.13 mph66%29.92 "HgN/A
11:00 am82 °FScattered clouds.10 mph62%29.95 "HgN/A
10:00 am79 °FBroken clouds.6 mph74%29.95 "HgN/A
9:00 am75 °FScattered showers. Broken clouds.3 mph89%N/AN/A
6:40 am73 °FLight rain. Fog.7 mph89%29.95 "Hg3 mi
6:00 am73 °FPartly sunny.3 mph89%29.92 "HgN/A
5:00 am73 °FFog.5 mph89%N/A3 mi
4:15 am73 °FRain showers. Passing clouds.7 mph89%29.89 "Hg2 mi
4:00 am73 °FPassing clouds.2 mph83%29.89 "Hg5 mi
3:00 am73 °FPassing clouds.2 mph83%29.89 "HgN/A
2:00 am77 °FPassing clouds.8 mph79%29.89 "HgN/A
1:00 am79 °FPassing clouds.8 mph70%29.89 "HgN/A
12:00 am79 °FPartly cloudy.3 mph74%29.89 "HgN/A
11:00 pm
Mon, Jan 16
77 °FPassing clouds.9 mph74%29.92 "HgN/A
10:00 pm79 °FPartly cloudy.14 mph74%29.92 "HgN/A
Weather by CustomWeather, © 2017

See weather overviewHow to use our weather pages